Back to catalog

STARLINK-35515

AliveCommunicationsVLEO
NORAD 66488·PAYLOAD·🇺🇸 United States

Launched Nov 15, 2025 from Cape Canaveral Space Force Station

Loading…

Next Passes (next 24 hours)

TLE

FreshSource: CelesTrak SupGP

Epoch: Sep 14, 2026, 15:11 UTC

1 66488C 25263D   26257.63312500 -.00056826  00000+0 -20585-2 0  2579
2 66488  43.0035   3.4668 0001365 274.9886 221.7614 15.27603282    15

Track STARLINK-35515 in real time with AllMySat

Download on the App Store